TimeEST,TemperatureF,Dew PointF,Humidity,Sea Level PressureIn,VisibilityMPH,Wind Direction,Wind SpeedMPH,Gust SpeedMPH,PrecipitationIn,Events,Conditions,WindDirDegrees,DateUTC
12:53 AM,26.1,23.0,88,30.38,10.0,Calm,Calm,-,N/A,,Clear,0,2013-01-05 05:53:00
1:53 AM,25.0,21.9,88,30.37,10.0,North,3.5,-,N/A,,Clear,350,2013-01-05 06:53:00
2:53 AM,24.1,21.0,88,30.38,10.0,Calm,Calm,-,N/A,,Clear,0,2013-01-05 07:53:00
3:53 AM,25.0,23.0,92,30.38,10.0,Calm,Calm,-,N/A,,Clear,0,2013-01-05 08:53:00
4:53 AM,28.9,23.0,78,30.36,10.0,Calm,Calm,-,N/A,,Clear,0,2013-01-05 09:53:00
5:53 AM,26.1,23.0,88,30.38,10.0,Calm,Calm,-,N/A,,Clear,0,2013-01-05 10:53:00
6:53 AM,26.1,23.0,88,30.39,10.0,Calm,Calm,-,N/A,,Clear,0,2013-01-05 11:53:00
7:53 AM,27.0,23.0,85,30.39,10.0,Calm,Calm,-,N/A,,Clear,0,2013-01-05 12:53:00
8:53 AM,30.9,26.1,82,30.40,10.0,Calm,Calm,-,N/A,,Clear,0,2013-01-05 13:53:00
9:53 AM,36.0,26.1,67,30.40,10.0,Calm,Calm,-,N/A,,Clear,0,2013-01-05 14:53:00
10:53 AM,41.0,26.1,55,30.40,10.0,Variable,3.5,-,N/A,,Clear,0,2013-01-05 15:53:00
11:53 AM,45.0,26.1,48,30.39,10.0,Calm,Calm,-,N/A,,Clear,0,2013-01-05 16:53:00
12:53 PM,46.0,24.1,42,30.33,10.0,East,3.5,-,N/A,,Clear,100,2013-01-05 17:53:00
1:53 PM,46.9,23.0,39,30.30,10.0,Variable,3.5,-,N/A,,Clear,0,2013-01-05 18:53:00
2:53 PM,48.9,25.0,39,30.27,10.0,Calm,Calm,-,N/A,,Clear,0,2013-01-05 19:53:00
3:53 PM,48.0,25.0,41,30.28,10.0,South,3.5,-,N/A,,Scattered Clouds,170,2013-01-05 20:53:00
4:53 PM,46.9,25.0,42,30.27,10.0,Calm,Calm,-,N/A,,Overcast,0,2013-01-05 21:53:00
5:53 PM,45.0,28.0,52,30.30,10.0,South,3.5,-,N/A,,Overcast,190,2013-01-05 22:53:00
6:53 PM,45.0,30.9,58,30.34,10.0,Calm,Calm,-,0.00,Rain,Light Rain,0,2013-01-05 23:53:00
7:53 PM,39.9,39.9,100,30.33,10.0,Calm,Calm,-,0.02,Rain,Light Rain,0,2013-01-06 00:53:00
8:53 PM,41.0,39.0,93,30.30,10.0,Calm,Calm,-,0.01,Rain,Light Rain,0,2013-01-06 01:53:00
9:53 PM,41.0,39.0,93,30.30,10.0,Calm,Calm,-,0.01,,Overcast,0,2013-01-06 02:53:00
10:53 PM,41.0,39.9,96,30.30,8.0,Calm,Calm,-,0.00,,Overcast,0,2013-01-06 03:53:00
11:53 PM,41.0,39.0,93,30.29,10.0,Calm,Calm,-,N/A,,Overcast,0,2013-01-06 04:53:00